{"data":{"norad_id":54690,"intl_designator":"2022-167J","name":"JILIN-1 GAOFEN 03D50","alt_names":[],"object_type":"PAYLOAD","status":"ACTIVE","operator":null,"country":"PRC","launch_date":"2022-12-09","launch_site_code":"SEAL","launch_vehicle":null,"mission":null,"orbit_class":"UNKNOWN","rcs_meters":null,"size_class":null,"mass_kg":null,"dimensions":null,"purposes":[],"wikipedia_slug":null,"has_3d_model":false,"image_url":null,"decayed_at":null,"tle_current":{"epoch":"2026-09-21T23:20:59.221824Z","epoch_age_seconds":35023,"freshness":"FRESH","line1":"1 54690U 22167J   26264.97290766  .00007096  00000+0  20331-3 0  9991","line2":"2 54690  97.6911  76.9640 0006279 116.0755 244.1135 15.36231388210205","mean_motion":15.36231388,"eccentricity":0.0006279,"inclination_deg":97.6911,"raan_deg":76.964,"arg_perigee_deg":116.0755,"mean_anomaly_deg":244.1135,"bstar":0.00020331,"rev_number":21020,"period_min":93.73587932445,"perigee_km":452.97342826107,"apogee_km":461.55732656663,"semimajor_km":6835.4023774139,"source":"CELESTRAK","updated_at":"2026-09-22T09:00:25.186329Z"}}}